Date,TemperatureHighF,TemperatureAvgF,TemperatureLowF,DewpointHighF,DewpointAvgF,DewpointLowF,HumidityHigh,HumidityAvg,HumidityLow,PressureMaxIn,PressureMinIn,WindSpeedMaxMPH,WindSpeedAvgMPH,GustSpeedMaxMPH,PrecipitationSumIn
2013-1-1,37.2,30.5,26.4,17.4,10.4,1.0,56,43,27,30.44,30.32,12,2,15,0.04
2013-1-2,40.3,33.8,25.2,12.9,9.3,3.0,52,36,24,30.38,30.28,16,4,18,0.04
2013-1-3,40.8,34.9,28.0,11.7,6.5,-2.0,44,30,22,30.39,30.25,14,3,16,0.00
2013-1-4,46.8,35.9,27.3,12.9,3.2,-8.5,34,25,14,30.45,30.36,4,0,4,0.00
2013-1-5,52.9,42.0,36.0,16.7,6.3,-8.7,38,23,12,30.42,30.22,18,2,19,0.00
2013-1-6,36.7,31.0,28.2,29.3,25.3,11.3,97,82,35,30.22,30.11,26,3,26,0.00
2013-1-7,41.2,32.3,23.7,28.4,21.7,9.5,97,71,28,30.31,30.12,16,5,17,0.09
2013-1-8,53.2,45.0,39.6,30.9,25.6,12.0,58,47,32,30.33,30.23,18,4,19,0.08
2013-1-9,54.7,46.3,40.3,32.5,27.4,21.7,61,48,35,30.30,29.99,19,3,22,0.00
2013-1-10,43.0,28.1,19.0,33.1,25.6,16.0,97,91,49,30.14,29.86,27,3,27,0.08
2013-1-11,30.0,22.0,16.7,18.7,15.9,13.3,89,78,54,30.33,30.14,11,2,13,0.00
2013-1-12,28.9,21.4,14.2,14.0,10.0,4.6,88,63,38,30.35,30.23,8,1,10,0.00
2013-1-13,32.4,23.4,17.4,11.1,6.2,-2.4,64,48,27,30.34,30.22,12,1,15,0.04
2013-1-14,27.1,20.7,13.3,5.4,-3.4,-10.5,54,35,22,30.57,30.32,24,9,24,0.00
2013-1-15,42.1,35.5,25.5,21.7,17.0,4.5,54,47,39,30.64,30.52,23,8,27,0.06
2013-1-16,46.8,42.4,36.5,22.5,17.9,7.0,50,38,21,30.52,30.36,19,7,21,0.05
2013-1-17,46.6,40.1,33.6,16.0,12.0,9.7,42,32,24,30.43,30.33,11,2,14,0.00
2013-1-18,48.6,39.1,32.4,18.0,12.6,10.4,41,34,25,30.40,30.33,9,1,9,0.00
2013-1-19,48.7,40.7,32.7,16.9,10.1,0.7,41,29,19,30.44,30.36,8,1,9,0.00
2013-1-20,50.4,42.2,35.4,12.7,6.0,-4.2,29,22,13,30.39,30.28,8,1,11,0.00
2013-1-21,52.0,45.0,39.6,11.5,3.8,-6.5,23,18,12,30.32,30.24,10,2,11,0.00
2013-1-22,61.5,50.9,40.1,19.0,4.5,-12.6,21,15,6,30.29,30.20,9,1,15,0.00
2013-1-23,60.4,52.3,40.1,34.9,29.0,12.7,80,42,20,30.21,30.09,18,3,20,0.05
2013-1-24,50.5,44.6,39.6,48.7,41.8,30.2,97,90,66,30.27,30.10,22,3,25,0.86
2013-1-25,48.2,44.8,41.9,46.6,43.6,40.8,98,95,83,30.27,30.04,11,1,13,0.77
2013-1-26,49.5,43.3,41.2,46.9,42.6,40.6,98,97,89,30.04,29.96,13,1,16,0.09
2013-1-27,41.9,35.1,25.5,41.4,34.6,24.6,98,98,96,30.07,29.96,20,3,26,0.07
2013-1-28,31.6,26.0,22.8,26.4,22.8,18.9,96,88,71,30.37,30.07,12,1,15,0.00
2013-1-29,50.2,35.9,23.7,31.1,25.0,17.1,84,66,43,30.43,30.32,14,2,14,0.55
2013-1-30,50.7,44.5,39.9,31.5,27.0,21.9,61,50,41,30.43,30.33,17,3,21,0.06
2013-1-31,52.3,46.0,41.0,32.0,28.3,22.8,57,50,42,30.37,30.26,14,3,14,0.00
2013-2-1,57.4,47.9,40.8,33.4,27.8,21.4,54,46,33,30.33,30.25,7,0,8,0.00
2013-2-2,55.9,48.2,40.5,36.5,30.8,26.8,82,51,40,30.34,30.25,4,0,5,0.02
2013-2-3,49.3,43.2,38.1,40.1,35.0,28.6,95,74,55,30.25,30.13,17,2,18,0.09
2013-2-4,55.6,46.5,39.2,34.3,27.0,16.2,65,48,29,30.22,30.12,10,1,11,0.00
2013-2-5,55.6,47.5,42.6,35.2,27.2,10.0,58,46,22,30.14,30.00,14,2,14,0.00
2013-2-6,51.4,42.7,34.2,31.6,21.3,-0.4,87,45,17,30.20,29.98,11,2,13,0.00
2013-2-7,51.8,42.6,31.1,39.0,24.7,2.3,97,56,19,30.20,29.93,18,4,21,0.00
2013-2-8,31.3,26.3,22.3,30.6,25.3,21.0,97,96,95,30.02,29.88,19,3,24,0.00
2013-2-9,33.3,25.7,20.5,31.1,24.2,18.9,96,94,90,30.25,30.02,12,2,17,0.25
2013-2-10,37.9,28.4,22.6,30.7,25.1,19.4,95,88,65,30.25,30.14,11,1,12,0.12
2013-2-11,34.3,29.2,23.7,25.9,12.1,0.5,95,54,27,30.42,30.19,22,6,22,0.02
2013-2-12,41.9,34.8,27.0,16.3,10.0,3.0,43,35,30,30.50,30.41,12,3,14,0.00
2013-2-13,48.6,40.4,31.8,20.8,15.2,7.9,46,36,28,30.43,30.31,15,2,17,0.00
2013-2-14,51.6,44.8,38.3,26.2,21.5,18.1,50,40,30,30.34,30.25,16,4,17,0.00
2013-2-15,55.2,45.9,39.9,21.2,14.7,0.7,46,29,17,30.40,30.28,21,3,21,0.00
2013-2-16,60.6,48.1,39.6,26.4,11.2,-6.5,30,23,11,30.39,30.09,7,0,8,0.00
2013-2-17,53.4,45.3,38.8,31.5,18.4,10.9,68,35,21,30.09,29.96,10,2,13,0.00
2013-2-18,52.0,43.4,38.5,33.4,22.9,12.0,82,46,25,30.08,29.94,19,4,20,0.00
2013-2-19,38.8,30.1,25.9,30.9,28.5,20.3,97,94,47,29.94,29.73,25,6,27,0.00
2013-2-20,31.5,25.8,19.2,30.7,24.8,17.8,97,96,94,30.16,29.71,10,1,14,0.01
2013-2-21,33.3,28.3,24.4,29.3,22.6,12.9,97,80,53,30.29,30.13,12,3,14,0.13
2013-2-22,44.4,34.7,24.4,28.2,17.5,10.4,84,51,29,30.38,30.28,8,1,8,0.34
2013-2-23,53.6,39.9,29.8,29.1,24.0,9.7,85,55,17,30.31,29.98,21,4,25,0.02
2013-2-24,37.9,32.2,26.2,10.0,1.6,-6.3,41,28,17,30.40,30.08,25,10,33,0.00
2013-2-25,51.6,39.9,29.7,18.0,6.7,-6.7,43,26,14,30.41,30.19,6,1,11,0.00
2013-2-26,48.7,39.8,30.2,21.0,11.2,-0.6,60,32,18,30.30,30.12,11,3,16,0.00
2013-2-27,46.2,40.4,33.8,12.4,4.8,0.5,29,23,16,30.47,30.30,16,5,18,0.00
2013-2-28,54.7,45.6,35.2,15.6,8.9,1.0,30,22,17,30.50,30.44,10,3,14,0.00
2013-3-1,61.5,50.7,42.1,24.8,16.1,9.0,34,25,20,30.49,30.34,10,2,14,0.00
2013-3-2,63.0,54.6,48.6,26.4,19.2,13.1,37,25,16,30.40,30.15,12,2,19,0.00
2013-3-3,54.1,47.5,38.8,35.4,26.0,17.2,79,45,27,30.15,29.99,11,2,16,0.00
2013-3-4,55.8,44.6,36.0,42.6,34.3,30.6,91,68,40,30.19,30.01,11,2,14,0.00
2013-3-5,54.1,46.1,36.9,42.6,36.5,31.8,97,71,45,30.18,30.00,17,5,28,0.02
2013-3-6,46.0,37.8,32.5,41.2,35.6,31.8,97,92,76,30.13,30.01,17,4,24,0.11
2013-3-7,35.2,33.2,30.9,34.5,32.5,30.2,98,97,96,30.08,29.96,17,4,22,0.55
2013-3-8,31.1,29.6,27.3,30.4,28.8,26.4,98,97,95,30.14,29.84,11,2,21,0.01
2013-3-9,41.5,34.2,28.0,35.8,30.6,27.3,98,88,62,30.39,30.14,9,2,13,0.64
2013-3-10,50.4,42.8,35.1,27.5,16.3,3.2,73,36,19,30.46,30.34,15,6,23,0.18
2013-3-11,60.1,50.7,40.8,27.9,11.8,-1.5,33,21,13,30.37,30.17,5,1,8,0.00
2013-3-12,66.7,54.4,45.3,32.9,19.5,4.5,43,26,17,30.22,30.13,7,1,10,0.00
2013-3-13,71.8,59.7,50.4,32.0,23.6,16.5,32,25,18,30.23,30.14,5,1,8,0.00
2013-3-14,73.8,63.5,56.1,38.7,28.0,16.5,43,26,17,30.16,30.06,6,1,10,0.00
2013-3-15,69.3,60.6,53.4,38.1,28.0,5.5,48,29,14,30.07,29.93,10,3,18,0.00
2013-3-16,66.2,56.3,46.4,29.3,20.1,-1.3,40,25,10,29.97,29.90,8,2,12,0.00
2013-3-17,64.6,52.4,44.8,43.5,24.5,9.0,67,36,12,30.02,29.93,9,2,12,0.00
2013-3-18,63.5,52.4,45.3,39.6,21.5,7.7,47,30,17,30.08,29.98,5,1,9,0.00
2013-3-19,63.0,52.1,44.8,38.3,29.0,23.2,52,41,27,30.14,30.03,11,2,14,0.00
2013-3-20,57.4,51.8,46.0,43.7,36.8,32.5,72,57,45,30.13,29.99,10,2,17,0.00
2013-3-21,63.9,48.7,40.6,45.9,35.5,25.0,85,62,28,29.99,29.85,11,2,13,0.00
2013-3-22,59.4,46.3,36.3,39.4,22.4,2.7,89,44,10,30.03,29.84,11,3,13,0.00
2013-3-23,60.6,46.8,35.1,33.6,22.0,1.8,61,39,10,30.11,29.99,6,1,10,0.00
2013-3-24,61.3,50.5,40.3,28.0,19.1,12.0,51,30,19,30.10,30.00,10,1,11,0.00
2013-3-25,61.5,53.4,46.0,39.4,27.1,16.5,66,37,24,30.04,29.95,12,3,19,0.00
2013-3-26,57.9,51.4,45.3,39.2,29.7,18.5,75,45,23,29.99,29.91,13,4,17,0.00
2013-3-27,55.8,48.6,44.2,42.8,35.4,25.5,92,61,47,30.07,29.92,11,3,18,0.00
2013-3-28,60.4,50.3,43.9,45.0,36.0,30.0,83,59,33,30.13,30.04,11,2,14,0.00
2013-3-29,63.7,54.3,46.2,46.4,36.1,31.8,86,52,33,30.17,30.09,9,2,19,0.00
2013-3-30,60.6,53.2,45.5,41.9,31.8,7.0,74,46,17,30.12,30.05,13,3,18,0.00
2013-3-31,52.2,45.5,39.6,43.7,37.4,20.8,96,75,38,30.12,30.05,13,3,21,0.00
2013-4-1,49.5,40.8,35.2,40.6,37.3,33.4,96,88,70,30.20,30.09,16,3,18,0.00
2013-4-2,60.1,47.6,37.2,39.0,33.2,26.1,84,61,28,30.20,30.12,9,2,12,0.00
2013-4-3,68.4,56.5,46.9,39.4,31.8,25.7,53,40,28,30.16,30.06,8,2,11,0.00
2013-4-4,61.9,54.4,45.7,45.1,35.6,24.3,92,52,26,30.09,29.99,13,4,18,0.00
2013-4-5,63.3,48.7,41.2,45.3,40.8,33.6,94,77,37,30.09,30.01,11,2,17,0.00
2013-4-6,61.3,50.2,41.2,45.3,35.0,27.3,93,58,35,30.12,30.01,9,2,12,0.00
2013-4-7,64.2,50.4,42.4,48.2,36.5,24.3,91,61,28,30.04,29.82,9,3,14,0.00
2013-4-8,44.6,39.3,33.6,41.7,34.9,28.0,97,85,59,29.90,29.59,11,2,27,0.21
2013-4-9,50.7,40.6,29.7,30.9,19.0,2.7,85,48,16,30.17,29.90,16,4,22,0.00
2013-4-10,60.3,50.1,38.8,19.9,13.2,4.5,45,24,12,30.24,30.12,18,5,27,0.00
2013-4-11,62.4,54.0,47.3,41.0,27.9,15.8,74,39,23,30.12,29.78,12,2,16,0.00
2013-4-12,69.1,56.4,46.2,42.6,34.7,28.2,67,46,23,29.91,29.81,10,2,13,0.00
2013-4-13,62.2,54.8,47.1,45.5,36.2,26.1,92,52,30,29.90,29.76,16,5,21,0.00
2013-4-14,67.8,53.6,40.3,39.2,32.9,23.2,91,49,27,29.79,29.71,12,2,21,0.00
2013-4-15,46.2,39.7,36.3,39.7,36.5,22.8,97,90,40,29.89,29.73,21,6,29,0.02
2013-4-16,46.0,35.8,27.5,35.8,29.2,18.3,98,79,38,30.09,29.85,23,3,27,0.02
2013-4-17,47.8,38.9,28.9,25.2,12.3,2.7,75,38,16,30.30,30.08,16,5,20,0.00
2013-4-18,52.9,44.3,35.2,9.3,4.6,-2.2,31,20,11,30.37,30.30,17,7,21,0.00
2013-4-19,65.7,53.1,41.4,20.7,10.3,1.0,29,18,11,30.32,30.08,12,2,12,0.00
2013-4-20,71.6,58.0,44.8,38.8,25.2,17.1,45,30,13,30.09,29.99,11,2,17,0.00
2013-4-21,71.1,61.9,54.3,36.0,26.4,16.0,39,26,19,30.04,29.95,13,3,16,0.00
2013-4-22,72.3,59.5,52.5,43.3,33.3,19.9,61,39,17,29.97,29.83,12,3,21,0.00
2013-4-23,69.1,57.9,49.5,40.6,31.4,19.8,58,38,16,29.96,29.84,10,2,12,0.00
2013-4-24,66.4,53.5,41.5,48.7,36.5,24.1,96,57,26,29.92,29.79,12,3,19,0.00
2013-4-25,64.2,50.1,38.7,44.2,38.6,28.9,97,68,31,30.15,29.87,11,1,12,0.00
2013-4-26,69.8,58.2,49.3,41.5,28.6,16.0,58,33,16,30.19,30.13,14,2,16,0.00
2013-4-27,75.0,63.3,54.3,39.2,26.5,13.6,39,26,10,30.19,30.04,12,1,16,0.00
2013-4-28,78.4,65.6,56.7,42.3,28.2,18.7,44,25,11,30.04,29.86,9,1,13,0.00
2013-4-29,76.5,66.1,57.4,43.3,28.1,14.5,51,25,14,29.89,29.73,12,2,15,0.00
2013-4-30,66.4,58.4,52.2,48.2,36.8,21.9,81,47,26,29.82,29.70,17,4,22,0.00
2013-5-1,69.3,59.1,50.4,41.7,13.7,-14.8,66,24,5,30.18,29.81,12,4,17,0.00
2013-5-2,66.0,57.5,50.5,4.6,-4.7,-15.0,12,8,5,30.23,30.16,15,4,19,0.00
2013-5-3,75.6,61.2,49.3,22.6,9.6,-6.2,23,13,8,30.17,29.88,8,1,12,0.00
2013-5-4,65.7,57.4,45.9,41.5,20.3,0.9,84,28,10,29.88,29.68,17,3,23,0.00
2013-5-5,50.7,44.6,39.6,41.5,33.9,12.0,97,72,21,29.94,29.74,20,6,27,0.02
2013-5-6,42.6,40.5,37.9,42.1,40.0,37.4,99,98,97,30.08,29.92,15,4,25,1.13
2013-5-7,47.5,40.5,35.8,44.4,39.4,35.6,99,96,83,30.15,30.06,14,3,20,0.05
2013-5-8,57.6,44.4,36.0,46.8,40.5,34.5,98,87,61,30.18,30.12,13,2,15,0.00
2013-5-9,63.3,50.4,41.5,48.6,43.4,38.3,94,78,41,30.17,30.08,11,1,14,0.01
2013-5-10,70.7,58.0,44.6,47.5,39.8,30.4,90,56,23,30.17,30.11,11,1,18,0.00
2013-5-11,77.9,65.7,55.4,45.1,37.0,25.9,60,37,15,30.17,30.05,9,1,16,0.00
2013-5-12,80.4,69.7,60.4,45.7,35.6,27.1,49,30,17,30.12,29.96,6,1,10,0.00
2013-5-13,81.9,71.5,62.1,44.6,36.2,31.5,42,28,17,30.03,29.91,9,1,13,0.00
2013-5-14,71.6,64.3,53.8,41.2,31.3,20.7,55,30,17,29.94,29.84,13,3,20,0.00
2013-5-15,74.1,60.2,53.6,47.3,38.0,23.7,69,45,25,29.97,29.91,12,2,19,0.00
2013-5-16,64.0,57.4,49.5,48.4,42.1,31.5,85,58,33,29.92,29.84,16,4,19,0.00
2013-5-17,55.4,50.1,45.7,47.5,44.7,40.8,94,82,70,30.01,29.83,13,3,18,0.00
2013-5-18,69.3,54.1,43.2,49.6,39.6,31.3,94,61,26,30.09,30.00,8,1,12,0.00
2013-5-19,73.6,59.6,48.6,38.8,29.2,23.2,57,33,17,30.04,29.94,9,1,11,0.00
2013-5-20,74.3,62.0,49.6,32.5,24.4,18.1,41,25,14,30.02,29.95,7,1,11,0.00
2013-5-21,72.3,63.1,55.8,44.2,32.3,12.7,58,33,16,29.99,29.79,13,3,20,0.00
2013-5-22,63.3,56.0,44.2,49.1,39.0,27.7,97,56,34,29.79,29.70,17,4,22,0.00
2013-5-23,56.5,50.4,42.6,45.9,35.7,12.7,97,62,20,29.95,29.75,16,5,23,0.00
2013-5-24,63.0,53.8,47.1,45.3,27.8,-21.8,92,46,4,29.99,29.92,12,3,25,0.00
2013-5-25,58.3,52.5,46.8,44.1,28.2,-12.1,90,45,7,30.02,29.94,19,5,21,0.00
2013-5-26,59.5,52.5,44.4,46.6,37.1,14.2,92,58,25,30.04,29.97,17,4,23,0.00
2013-5-27,73.8,57.0,46.4,50.7,39.8,30.7,78,55,21,30.02,29.85,13,1,19,0.00
2013-5-28,72.0,57.7,48.6,50.4,40.6,30.4,87,55,29,29.86,29.76,6,1,14,0.00
2013-5-29,75.6,61.0,47.8,52.3,39.4,24.4,68,48,15,29.86,29.75,10,2,17,0.00
2013-5-30,78.3,63.3,51.4,51.3,42.0,28.2,69,48,18,29.86,29.79,8,2,15,0.00
2013-5-31,82.6,68.9,57.9,51.1,35.9,19.8,54,31,14,29.91,29.83,9,2,11,0.00
2013-6-1,84.6,72.8,62.1,45.5,34.0,25.2,37,24,15,29.87,29.74,5,0,10,0.00
2013-6-2,75.0,69.1,59.4,54.0,40.9,27.3,79,39,22,29.78,29.64,11,3,18,0.00
2013-6-3,71.4,65.2,57.9,50.2,34.0,17.2,66,33,16,29.81,29.68,14,5,20,0.00
2013-6-4,75.0,65.6,57.7,51.6,29.5,-5.3,71,30,6,29.91,29.79,15,4,16,0.00
2013-6-5,79.9,66.7,62.4,49.5,11.7,-38.2,56,15,1,29.92,29.82,9,1,15,0.00
2013-6-6,86.2,73.4,64.9,53.2,30.7,15.1,48,22,13,29.87,29.79,11,1,13,0.00
2013-6-8,73.6,73.1,71.8,29.7,19.7,15.6,21,13,11,29.77,29.75,13,5,16,0.00
2013-6-9,75.7,68.8,60.3,50.2,32.7,12.9,64,28,13,29.83,29.73,11,3,19,0.00
2013-6-10,67.5,60.0,54.9,47.3,34.4,19.9,73,40,21,29.95,29.77,21,4,21,0.00
2013-6-11,79.5,69.4,56.5,45.9,35.3,23.7,41,29,18,29.99,29.91,10,2,13,0.00
2013-6-12,73.6,67.1,60.3,54.1,42.6,21.0,71,43,21,29.92,29.86,10,2,15,0.00
2013-6-13,75.0,66.5,58.3,50.7,30.6,-2.6,50,28,7,29.96,29.88,13,2,16,0.00
2013-6-14,75.9,67.9,61.9,49.6,22.8,-11.9,63,22,4,29.89,29.77,13,4,22,0.00
2013-6-15,70.9,64.8,60.3,45.1,23.2,-9.8,57,23,5,29.92,29.79,14,4,19,0.00
2013-6-16,74.8,65.4,55.6,47.1,21.5,-15.9,52,22,4,29.99,29.91,11,2,16,0.00
2013-6-17,79.5,65.6,55.8,49.3,35.4,18.9,63,35,13,29.97,29.89,11,2,16,0.00
2013-6-18,71.4,64.1,55.9,47.1,37.8,28.0,68,39,27,29.89,29.80,12,3,18,0.00
2013-6-19,77.4,60.8,47.3,51.3,38.5,10.0,78,49,8,29.86,29.77,9,2,14,0.00
2013-6-20,74.7,62.8,53.8,47.5,35.0,1.8,71,39,10,29.86,29.81,12,2,19,0.00
2013-6-21,70.0,62.8,54.9,47.3,37.1,21.4,58,40,23,29.87,29.81,16,3,19,0.00
2013-6-22,76.8,64.2,54.3,50.0,40.3,28.2,71,44,19,29.89,29.80,10,2,15,0.00
2013-6-23,65.8,60.4,54.9,49.6,44.1,34.0,76,56,38,29.81,29.75,14,3,18,0.00
2013-6-24,66.7,58.5,53.4,51.8,45.6,37.2,88,64,41,29.93,29.76,12,4,20,0.00
2013-6-25,79.2,66.4,55.2,56.7,50.5,45.7,71,58,35,29.98,29.90,10,2,14,0.00
2013-6-26,80.6,71.8,62.8,54.9,52.1,46.8,66,51,38,29.97,29.91,9,3,15,0.00
2013-6-27,83.3,74.5,67.8,54.9,50.0,36.5,56,43,28,30.01,29.95,12,3,17,0.00
2013-6-28,89.2,78.2,68.5,55.0,40.5,17.4,52,27,11,29.99,29.85,8,2,18,0.00
2013-6-29,92.3,81.1,72.9,52.9,38.0,-10.3,38,23,3,29.89,29.74,7,1,12,0.00
2013-6-30,94.8,82.6,73.9,52.9,43.1,33.8,41,26,13,29.78,29.69,8,1,11,0.00
2013-7-1,87.4,78.1,72.1,55.4,44.4,35.8,46,31,20,29.85,29.73,12,3,18,0.00
2013-7-2,83.1,75.7,71.2,55.0,44.1,39.0,56,33,26,29.95,29.83,10,2,16,0.00
2013-7-3,89.1,77.4,72.3,54.3,48.1,43.5,51,36,23,29.89,29.73,12,2,15,0.00
2013-7-4,87.6,76.9,71.2,54.0,47.9,39.9,49,36,27,29.76,29.68,15,2,19,0.00
2013-7-5,80.8,73.4,68.5,54.3,48.4,36.5,58,42,26,29.76,29.69,14,3,17,0.00
2013-7-6,81.7,72.8,69.1,54.5,45.7,32.7,54,39,25,29.77,29.70,12,2,15,0.00
2013-7-7,84.9,75.5,69.1,52.0,37.6,19.9,48,26,13,29.82,29.74,9,1,13,0.00
2013-7-8,86.7,75.1,68.2,43.7,35.4,26.8,35,24,13,29.96,29.82,6,1,16,0.00
2013-7-9,88.3,76.5,68.0,47.3,36.9,27.9,36,24,15,29.99,29.91,11,1,13,0.00
2013-7-10,88.3,75.7,69.8,58.1,43.7,33.8,57,33,18,29.96,29.80,5,0,11,0.00
2013-7-11,72.1,67.7,63.5,57.9,48.0,38.8,72,51,32,29.89,29.81,7,1,9,0.01
2013-7-12,77.7,68.7,62.8,57.0,50.4,37.8,67,52,36,29.92,29.85,13,2,18,0.00
2013-7-13,84.6,72.2,63.7,51.8,38.4,17.4,52,31,16,29.95,29.85,7,1,14,0.00
2013-7-14,85.6,73.9,66.4,54.0,42.3,33.6,44,32,25,29.91,29.80,11,1,13,0.00
2013-7-15,80.8,72.0,65.1,53.8,43.5,33.6,50,36,24,29.84,29.76,10,2,17,0.00
2013-7-16,75.9,68.2,62.6,43.2,29.8,3.0,47,25,9,29.97,29.79,14,4,25,0.00
2013-7-17,80.2,70.1,59.7,36.5,24.6,3.0,31,19,8,30.04,29.95,11,2,14,0.00
2013-7-18,88.2,74.8,65.8,44.6,29.6,20.3,33,19,12,29.98,29.84,9,1,13,0.00
2013-7-19,86.4,76.9,71.2,50.5,34.1,8.2,45,23,8,29.87,29.74,10,2,18,0.00
2013-7-20,79.2,72.1,64.9,62.1,50.0,16.7,88,50,11,29.80,29.72,11,2,15,0.07
2013-7-21,72.1,67.2,62.8,61.2,57.8,52.3,90,72,59,29.90,29.74,10,1,14,0.03
2013-7-22,73.6,65.9,60.6,62.4,59.7,57.0,94,81,66,29.97,29.86,11,2,15,0.00
2013-7-23,76.3,67.7,59.9,60.4,56.1,50.9,85,67,54,29.99,29.91,11,2,15,0.00
2013-7-24,82.0,72.6,66.0,57.2,52.5,43.7,67,50,37,29.96,29.86,10,2,16,0.00
2013-7-25,87.1,75.2,67.8,54.7,47.2,39.9,53,38,23,29.96,29.87,13,2,16,0.00
2013-7-26,79.7,71.7,67.1,61.7,49.8,36.3,73,48,28,30.01,29.93,6,1,12,0.00
2013-7-27,81.7,71.5,66.2,59.4,54.2,45.9,70,55,39,29.96,29.83,10,2,14,0.00
2013-7-28,75.7,68.6,63.0,51.4,41.5,9.5,56,39,11,29.86,29.79,15,4,22,0.00
2013-7-29,75.9,68.3,63.3,46.0,33.4,7.3,50,29,10,29.98,29.85,11,3,14,0.00
2013-7-30,77.0,69.8,64.2,51.6,45.2,37.8,58,42,32,30.03,29.98,10,2,16,0.00
2013-7-31,77.9,70.5,64.2,52.2,39.4,22.3,61,34,16,30.02,29.91,13,3,19,0.00
2013-8-1,75.6,68.5,60.6,45.0,26.5,0.9,49,23,7,29.94,29.85,11,3,18,0.00
2013-8-2,74.8,66.6,60.6,48.4,38.8,15.4,63,38,15,29.91,29.85,11,3,16,0.00
2013-8-3,77.5,68.5,61.0,48.0,28.9,-8.5,54,27,5,29.95,29.89,10,3,16,0.00
2013-8-4,78.1,70.6,64.9,48.6,30.2,-15.0,55,26,3,29.96,29.89,12,3,15,0.00
2013-8-5,79.0,70.3,62.4,42.1,22.7,-11.7,40,20,4,29.96,29.89,16,3,17,0.00
2013-8-6,75.7,68.1,63.1,44.6,22.6,-15.5,49,21,3,29.98,29.89,13,4,18,0.00
2013-8-7,75.4,66.5,60.8,41.9,27.2,15.4,48,23,15,30.02,29.95,14,4,19,0.00
2013-8-8,73.2,65.7,60.6,39.6,18.9,-9.2,45,20,5,29.97,29.89,11,3,16,0.00
2013-8-9,72.0,63.2,56.7,47.5,33.4,10.2,71,37,11,29.93,29.86,10,2,17,0.00
2013-8-10,73.6,63.0,53.2,46.9,33.9,13.8,73,36,13,30.01,29.92,12,2,18,0.00
2013-8-11,77.4,66.1,57.4,45.5,36.3,23.9,52,34,18,29.98,29.89,11,2,17,0.00
2013-8-12,79.7,69.6,60.3,46.2,33.0,11.5,48,27,12,29.94,29.88,9,2,14,0.00
2013-8-13,84.7,72.8,64.0,43.7,31.7,15.1,35,23,14,29.94,29.87,8,1,13,0.00
2013-8-14,86.4,75.0,66.9,43.3,27.6,1.6,33,18,4,29.92,29.83,7,1,14,0.00
2013-8-15,84.6,75.3,69.4,45.1,37.4,28.2,37,26,17,29.90,29.84,10,2,14,0.00
2013-8-16,84.7,75.2,68.9,52.9,49.2,41.0,52,41,29,29.91,29.86,13,3,14,0.00
2013-8-17,85.3,75.7,67.5,51.6,47.6,43.7,55,38,24,29.91,29.80,9,2,15,0.00
2013-8-18,86.7,77.8,69.4,55.6,49.8,42.1,56,38,30,29.83,29.75,10,2,21,0.00
2013-8-19,82.2,71.4,59.5,66.9,56.1,51.8,95,60,40,29.88,29.81,8,-2,18,0.13
2013-8-20,81.9,73.6,67.3,55.4,47.9,37.4,60,42,22,29.88,29.83,12,2,15,0.00
2013-8-21,85.6,75.3,67.8,46.9,38.7,26.8,41,28,15,29.90,29.82,6,2,14,0.00
2013-8-22,84.0,74.7,67.1,47.5,42.5,32.2,42,32,23,29.90,29.80,9,2,12,0.00
2013-8-23,82.0,72.1,64.2,42.8,38.0,30.6,41,30,18,29.84,29.73,8,2,15,0.00
2013-8-24,80.1,70.5,63.1,52.3,39.7,28.4,66,35,19,29.85,29.76,14,3,18,0.00
2013-8-25,79.9,69.1,62.4,55.2,50.5,36.3,77,53,31,29.92,29.82,12,3,17,0.00
2013-8-26,69.3,65.1,60.3,60.1,56.1,51.6,84,73,64,29.93,29.87,7,1,8,0.00
2013-8-27,79.0,67.8,59.5,60.8,57.3,54.9,88,70,47,29.90,29.81,7,1,11,0.00
2013-8-28,81.9,72.2,64.6,57.6,55.6,52.2,72,57,41,29.90,29.81,9,2,13,0.00
2013-8-29,82.9,72.8,65.8,61.7,56.6,51.4,81,58,39,29.96,29.88,8,1,13,0.00
2013-8-30,78.3,68.8,63.9,65.1,62.0,59.4,94,80,57,29.98,29.91,9,2,14,0.03
2013-8-31,74.8,67.3,62.6,65.5,62.0,60.3,95,83,70,29.98,29.89,10,2,18,0.00
2013-9-1,78.4,69.0,62.2,60.8,57.7,52.3,93,68,45,29.94,29.87,11,3,15,0.00
2013-9-2,81.7,71.5,63.9,57.7,52.8,45.9,71,53,37,29.93,29.81,7,1,12,0.00
2013-9-3,81.9,72.3,65.7,58.1,55.0,51.4,70,55,38,29.92,29.84,10,1,14,0.00
2013-9-4,84.4,74.5,67.8,58.1,55.6,52.7,62,53,36,29.93,29.84,12,2,14,0.00
2013-9-5,83.8,74.6,68.0,58.1,54.3,48.6,65,50,34,29.90,29.83,10,2,19,0.00
2013-9-6,84.9,74.0,66.4,54.1,50.3,43.5,60,44,29,29.90,29.82,7,1,11,0.00
2013-9-7,81.7,71.1,65.7,58.8,51.4,45.3,73,51,36,29.88,29.81,8,2,12,0.02
2013-9-8,79.5,71.0,63.7,53.8,45.3,37.2,65,41,23,29.86,29.76,9,1,14,0.00
2013-9-9,78.1,67.7,57.4,53.2,47.3,44.1,84,49,33,29.82,29.72,11,2,16,0.04
2013-9-10,72.3,64.9,59.7,52.0,47.0,42.3,74,53,37,29.90,29.76,12,4,17,0.00
2013-9-11,74.1,65.9,60.3,48.9,41.4,28.2,58,42,25,29.97,29.91,10,2,15,0.00
2013-9-12,76.8,68.8,63.3,44.8,36.3,25.7,47,31,22,29.94,29.85,9,2,13,0.00
2013-9-13,81.5,71.2,61.0,44.2,30.0,15.4,39,22,14,29.87,29.70,7,1,12,0.00
2013-9-14,83.8,73.7,65.8,44.2,39.7,34.7,41,30,20,29.74,29.67,6,1,12,0.00
2013-9-15,84.0,74.3,67.5,48.6,39.1,32.4,46,29,20,29.77,29.71,12,2,16,0.00
2013-9-16,82.0,72.7,64.4,44.6,38.2,30.0,44,29,21,29.82,29.73,12,2,17,0.00
2013-9-17,73.2,66.2,59.9,45.3,35.0,20.3,58,33,19,29.77,29.68,15,4,22,0.00
2013-9-18,75.7,65.0,54.3,34.2,25.3,9.1,36,23,13,29.80,29.69,12,2,17,0.00
2013-9-19,79.5,67.0,55.8,44.8,30.8,21.0,47,27,14,29.86,29.77,7,1,11,0.00
2013-9-20,75.7,66.5,60.8,51.3,37.1,28.8,68,35,21,29.82,29.75,13,3,22,0.00
2013-9-21,64.9,57.4,46.0,49.6,32.9,-4.4,94,48,7,29.84,29.74,13,3,18,0.00
2013-9-22,63.0,51.1,39.6,43.3,33.1,23.5,94,56,22,29.99,29.75,9,1,14,0.00
2013-9-23,75.0,61.2,46.9,35.2,31.1,25.9,62,34,18,30.04,29.96,6,1,10,0.00
2013-9-24,73.6,64.2,56.8,41.9,32.8,27.0,44,31,22,30.00,29.83,13,2,17,0.00
2013-9-25,62.4,55.2,43.5,45.1,36.1,24.4,96,52,30,29.84,29.65,19,6,30,0.00
2013-9-26,55.6,45.1,39.6,42.6,33.6,14.5,97,71,22,30.04,29.66,12,1,17,0.01
2013-9-27,59.9,49.0,38.1,27.5,22.0,14.5,63,37,20,30.19,30.02,10,2,21,0.00
2013-9-28,70.0,57.6,46.0,23.9,17.7,9.9,30,21,12,30.18,30.10,7,1,11,0.00
2013-9-29,72.9,62.5,53.4,22.8,19.3,11.1,26,19,13,30.16,30.03,8,1,12,0.00
2013-9-30,75.4,63.6,54.1,36.7,24.7,11.5,41,24,13,30.05,29.89,8,2,12,0.00
2013-10-1,70.0,62.8,57.4,43.5,32.8,26.4,58,33,22,29.92,29.87,11,4,19,0.00
2013-10-2,65.8,58.6,51.8,46.2,38.1,20.1,79,49,22,29.92,29.85,15,5,20,0.00
2013-10-3,69.1,56.0,47.3,46.0,31.9,11.8,68,43,13,29.95,29.81,9,1,14,0.00
2013-10-4,58.6,50.7,44.6,22.3,12.7,8.8,35,22,14,30.24,29.96,11,4,18,0.00
2013-10-5,64.6,54.4,45.9,17.8,11.8,-1.1,31,19,10,30.31,30.22,12,4,20,0.00
2013-10-6,71.1,57.9,45.1,19.0,11.6,-0.2,25,16,9,30.25,30.10,7,1,9,0.00
2013-10-7,68.5,59.5,53.2,37.9,15.7,7.5,53,20,11,30.10,29.92,10,2,14,0.00
2013-10-8,60.1,53.1,43.0,45.9,27.2,8.4,96,45,16,29.94,29.76,16,5,25,0.00
2013-10-9,43.0,37.0,32.4,41.9,36.4,31.8,98,98,96,29.86,29.67,18,5,28,1.22
2013-10-10,46.6,38.5,31.1,42.4,35.8,30.6,98,90,78,30.17,29.87,9,1,14,0.59
2013-10-11,61.2,49.9,40.8,41.4,35.4,31.5,79,59,39,30.18,30.05,5,0,10,0.00
2013-10-12,61.9,51.9,44.8,44.4,34.5,28.0,90,53,33,30.06,29.94,12,2,18,0.00
2013-10-13,55.6,48.5,42.4,39.6,33.6,26.2,80,57,33,30.11,29.91,13,4,22,0.00
2013-10-14,59.5,49.9,41.5,33.1,27.2,19.0,56,42,30,30.18,30.09,14,1,14,0.00
2013-10-15,60.8,51.0,42.1,28.4,21.7,13.1,42,32,25,30.14,30.05,7,2,14,0.00
2013-10-16,60.4,50.6,42.6,24.1,19.1,14.7,41,29,18,30.22,30.12,9,1,9,0.00
2013-10-17,66.4,54.4,46.9,26.6,20.0,10.2,39,26,15,30.17,30.02,5,0,7,0.00
2013-10-18,67.5,55.8,45.7,26.2,18.8,2.1,40,25,13,30.14,30.06,8,1,11,0.00
2013-10-19,71.4,59.3,50.9,27.5,13.3,-1.5,31,17,8,30.14,30.06,4,0,8,0.00
2013-10-20,72.7,60.8,54.9,30.0,15.5,1.8,35,18,9,30.07,29.92,6,1,9,0.00
2013-10-21,70.5,60.8,53.8,27.3,15.7,2.8,25,17,12,30.04,29.96,5,0,9,0.00
2013-10-22,72.3,61.8,55.2,35.1,19.3,9.9,40,20,11,30.04,29.94,7,0,12,0.00
2013-10-23,69.4,59.9,53.4,30.4,22.0,17.2,28,23,15,29.96,29.88,4,0,9,0.00
2013-10-24,68.2,58.3,49.3,26.1,20.4,16.3,32,23,14,30.08,29.92,6,1,11,0.00
2013-10-25,71.8,61.7,52.9,25.3,20.1,16.7,31,20,14,30.15,30.08,6,1,8,0.00
2013-10-26,69.8,60.5,56.5,27.7,20.5,17.1,23,21,18,30.15,30.11,6,0,9,0.00
2013-10-27,67.6,56.8,43.3,42.8,30.1,21.7,95,42,19,29.96,29.70,13,2,18,0.00
2013-10-28,43.3,38.3,34.3,42.1,37.7,33.8,98,97,95,29.99,29.65,22,6,29,0.78
2013-10-29,38.7,35.8,32.7,38.1,35.2,32.2,98,98,98,30.13,29.98,14,2,21,0.14
2013-10-30,50.7,40.1,32.5,37.9,31.3,26.1,98,73,44,30.22,30.12,8,1,10,0.01
2013-10-31,56.5,47.1,38.7,29.3,20.4,7.3,60,36,23,30.28,30.19,5,0,11,0.00
2013-11-1,61.9,52.0,44.1,31.1,24.7,17.4,44,35,25,30.26,30.13,4,0,8,0.00
2013-11-2,63.1,53.0,46.6,35.2,24.8,14.5,61,34,21,30.13,29.93,10,1,14,0.00
2013-11-3,61.9,49.3,43.3,39.9,31.5,22.3,74,52,24,29.93,29.82,10,2,15,0.00
2013-11-4,49.8,44.2,39.7,42.4,31.8,19.2,85,63,38,30.04,29.78,11,2,14,0.00
2013-11-5,47.5,41.5,35.8,22.8,11.9,5.4,48,31,19,30.36,30.04,13,5,20,0.00
2013-11-6,56.1,45.9,34.3,13.3,7.1,1.6,34,21,12,30.47,30.35,6,0,9,0.00
2013-11-7,66.6,55.1,46.0,36.3,17.6,5.7,46,23,14,30.36,30.13,5,0,11,0.00
2013-11-8,64.4,57.2,52.3,17.6,12.1,6.8,25,17,12,30.13,30.00,11,2,14,0.00
2013-11-9,63.1,56.0,51.4,18.9,10.0,-15.3,25,16,5,30.14,30.02,9,2,13,0.00
2013-11-10,66.0,55.8,49.6,20.1,11.4,-11.9,29,18,6,30.18,30.11,5,1,10,0.00
2013-11-11,64.4,55.2,48.2,27.1,19.1,2.7,33,25,10,30.25,30.13,4,0,8,0.00
2013-11-12,66.7,58.0,50.4,30.0,24.0,11.7,34,27,17,30.30,30.21,1,0,3,0.00
2013-11-13,66.6,57.5,50.9,28.8,21.0,16.3,32,24,17,30.20,30.06,6,0,8,0.00
2013-11-14,67.5,57.7,50.2,28.0,22.2,16.3,35,26,17,30.11,29.78,13,2,21,0.00
2013-11-15,54.1,45.3,39.7,41.2,35.1,23.9,95,72,31,29.78,29.64,14,4,19,0.00
2013-11-16,43.0,39.2,37.0,39.7,37.9,35.4,98,95,83,30.02,29.76,14,5,24,0.02
2013-11-17,53.4,42.9,35.1,44.2,38.0,34.5,98,84,62,30.19,30.02,4,0,8,0.01
2013-11-18,53.2,45.2,38.8,43.3,38.9,32.7,96,79,64,30.22,30.09,12,2,18,0.00
2013-11-19,60.3,48.2,37.9,40.3,31.3,18.7,97,57,21,30.11,29.98,8,1,16,0.00
2013-11-20,54.1,43.8,39.7,42.8,38.7,31.3,97,83,55,29.98,29.89,12,2,16,0.01
2013-11-21,43.5,39.8,32.9,43.0,39.2,32.4,98,98,97,29.99,29.88,14,2,24,4.32
2013-11-22,35.8,31.7,29.8,35.2,31.2,29.3,98,98,98,30.15,29.96,8,2,12,0.13
2013-11-23,32.9,31.6,30.0,32.5,31.2,29.5,99,98,98,30.29,30.14,4,0,8,0.00
2013-11-24,39.6,34.3,30.9,39.4,34.1,30.7,99,99,98,30.38,30.27,5,1,10,0.09
2013-11-25,50.7,41.4,32.4,35.6,31.2,20.8,99,69,33,30.44,30.36,9,2,17,0.02
2013-11-26,55.9,46.1,38.3,38.5,30.9,21.4,70,56,34,30.38,30.19,8,0,15,0.00
2013-11-27,55.8,46.0,40.8,34.2,28.6,24.1,65,51,33,30.19,30.00,6,0,9,0.00
2013-11-28,49.3,42.8,39.0,32.4,28.9,25.7,68,58,48,30.18,29.99,7,1,10,0.00
2013-11-29,45.9,41.7,38.1,41.4,34.7,27.3,95,77,53,30.32,30.17,6,0,7,0.07
2013-11-30,50.4,42.8,37.0,38.7,34.3,28.9,94,72,57,30.36,30.27,5,0,7,0.00
2013-12-1,52.9,45.3,39.9,30.9,26.0,9.3,63,48,20,30.41,30.32,7,1,10,0.00
2013-12-2,63.5,52.4,43.9,33.4,20.5,11.7,43,29,20,30.32,29.94,5,0,11,0.00
2013-12-3,52.3,44.6,37.8,39.0,29.5,18.3,97,60,30,29.94,29.69,15,4,27,0.29
2013-12-4,38.1,29.4,23.2,37.4,22.6,14.0,97,78,45,30.08,29.71,9,1,17,0.04
2013-12-5,34.7,29.1,24.4,27.5,25.2,21.4,94,85,69,30.22,30.07,7,1,11,0.00
2013-12-6,32.5,29.3,26.1,29.3,26.6,23.4,96,90,76,30.29,30.21,12,4,20,0.00
2013-12-7,32.2,28.8,26.6,31.5,28.0,25.7,97,96,95,30.22,30.07,22,5,27,0.00
2013-12-8,30.4,24.2,17.2,29.3,22.8,14.0,97,94,86,30.40,30.19,8,1,21,0.01
2013-12-9,30.9,23.2,16.7,13.8,-0.3,-8.3,86,38,19,30.64,30.40,22,5,26,0.00
2013-12-10,38.7,28.2,16.5,9.9,1.7,-7.4,48,32,21,30.62,30.43,3,0,5,0.00
2013-12-11,45.1,35.6,28.9,15.3,7.2,-2.4,47,31,18,30.44,30.37,4,0,6,0.02
2013-12-12,49.6,38.9,30.4,19.4,14.5,8.1,46,37,25,30.42,30.30,2,0,5,0.00
2013-12-13,49.6,43.0,38.7,16.3,10.6,3.9,38,27,18,30.38,30.24,12,3,17,0.00
2013-12-14,47.8,41.6,36.0,18.7,13.5,5.5,44,32,19,30.50,30.35,17,5,22,0.00
2013-12-15,50.5,43.4,34.0,20.8,16.8,10.6,47,34,28,30.50,30.39,8,1,10,0.00
2013-12-16,61.0,50.1,42.1,30.4,22.2,16.7,40,33,25,30.41,30.31,3,0,6,0.00
2013-12-17,66.4,55.7,47.7,36.9,24.4,16.5,41,30,18,30.33,30.12,7,0,11,0.00
2013-12-18,62.4,52.2,34.9,32.9,24.0,16.7,92,37,18,30.11,29.75,16,5,24,0.00
2013-12-19,34.9,32.8,30.9,33.6,32.0,30.2,98,97,89,29.91,29.66,21,4,30,0.10
2013-12-20,34.7,31.2,26.4,30.9,26.6,14.7,98,84,48,30.13,29.91,12,1,15,0.23
2013-12-21,48.4,41.0,31.3,31.3,23.6,12.7,60,50,38,30.19,30.06,6,1,11,0.15
2013-12-22,49.5,42.1,36.3,29.3,26.1,23.0,66,53,39,30.41,30.18,6,1,8,0.00
2013-12-23,47.7,42.2,37.9,32.4,27.5,25.0,64,56,50,30.49,30.41,7,1,9,0.00
2013-12-24,56.7,46.6,37.6,31.3,26.8,19.2,64,46,23,30.43,30.33,12,2,14,0.00
2013-12-25,50.2,44.0,40.1,24.1,17.7,1.4,49,35,17,30.41,30.32,15,4,15,0.00
2013-12-26,54.7,46.4,39.6,10.9,3.6,-7.1,26,17,10,30.38,30.30,12,3,17,0.00
2013-12-27,58.3,48.6,39.6,16.9,6.3,-8.0,28,18,10,30.36,30.21,6,1,10,0.00
2013-12-28,59.5,51.1,42.6,26.1,6.8,0.7,30,17,10,30.20,30.00,7,2,11,0.00
2013-12-29,46.6,41.6,35.4,13.6,5.6,-8.0,33,23,12,30.35,30.09,16,5,20,0.00
2013-12-30,60.6,48.2,37.2,17.4,-0.5,-27.0,30,14,4,30.43,30.31,3,0,6,0.00
2013-12-31,61.2,51.9,45.7,13.1,4.0,-4.4,19,14,9,30.31,30.16,5,1,7,0.00
2014-1-1,53.8,46.8,41.7,17.8,12.3,5.0,32,25,19,30.29,30.18,7,0,8,0.00
2014-1-2,58.8,49.3,43.0,29.7,22.7,17.2,44,35,28,30.28,30.15,3,0,5,0.00